• în Republica Moldova
  • Lista ţărilor
  • Pe 7 zile
  • Temperatura apei
  • Hartă satelitară
  • Meteo pe hartă
  • Widget-uri
  • user-avatar
    Intrare

    Meteo pe oră la Eisenstadt

    Astăzi, 27 Mai, Duminică

    Timp Temperatura Precipitaţii Vânt Presiune Umiditate
    00:00 +16°C° 0 mm 1 m/s 726 mmHg 85%
    01:00 +15°C° 0 mm 1 m/s 726 mmHg 86%
    02:00 +15°C° 0 mm 1 m/s 726 mmHg 87%
    03:00 +15°C° 0 mm 1 m/s 726 mmHg 88%
    04:00 +13°C° 0 mm 0 m/s 725 mmHg 89%
    05:00 +15°C° 0 mm 0 m/s 726 mmHg 83%
    06:00 +17°C° 0 mm 0 m/s 726 mmHg 78%
    07:00 +19°C° 0 mm 0 m/s 726 mmHg 72%
    08:00 +22°C° 0 mm 1 m/s 726 mmHg 67%
    09:00 +23°C° 0 mm 1 m/s 726 mmHg 62%
    10:00 +25°C° 0 mm 2 m/s 726 mmHg 57%
    11:00 +25°C° 0,1 mm 2 m/s 726 mmHg 55%
    12:00 +26°C° 0,1 mm 2 m/s 726 mmHg 53%
    13:00 +27°C° 0 mm 2 m/s 726 mmHg 56%
    14:00 +26°C° 0,7 mm 2 m/s 726 mmHg 59%
    15:00 +26°C° 0,7 mm 2 m/s 725 mmHg 62%
    16:00 +26°C° 0,7 mm 2 m/s 725 mmHg 65%
    17:00 +24°C° 0,4 mm 2 m/s 725 mmHg 70%
    18:00 +23°C° 0,4 mm 1 m/s 725 mmHg 75%
    19:00 +22°C° 0,4 mm 1 m/s 725 mmHg 80%
    20:00 +21°C° 0,5 mm 1 m/s 725 mmHg 82%
    21:00 +20°C° 0,5 mm 1 m/s 725 mmHg 84%
    22:00 +19°C° 0,5 mm 1 m/s 725 mmHg 86%
    23:00 +19°C° 0,2 mm 1 m/s 725 mmHg 86%

    Mâine, 28 Mai, Luni

    Timp Temperatura Precipitaţii Vânt Presiune Umiditate
    00:00 +19°C° 0,2 mm 1 m/s 725 mmHg 87%
    01:00 +18°C° 0,2 mm 1 m/s 725 mmHg 88%
    02:00 +18°C° 0,1 mm 1 m/s 725 mmHg 89%
    03:00 +18°C° 0,1 mm 1 m/s 725 mmHg 90%
    04:00 +16°C° 0,1 mm 1 m/s 725 mmHg 91%
    05:00 +19°C° 0,1 mm 1 m/s 725 mmHg 87%
    06:00 +20°C° 0,1 mm 1 m/s 725 mmHg 84%
    07:00 +21°C° 0,1 mm 1 m/s 725 mmHg 81%
    08:00 +23°C° 0,3 mm 2 m/s 725 mmHg 76%
    09:00 +24°C° 0,3 mm 2 m/s 726 mmHg 71%
    10:00 +25°C° 0,3 mm 3 m/s 726 mmHg 67%
    11:00 +26°C° 0,8 mm 3 m/s 725 mmHg 65%
    12:00 +26°C° 0,8 mm 3 m/s 725 mmHg 64%
    13:00 +26°C° 0,8 mm 4 m/s 725 mmHg 63%
    14:00 +26°C° 0,3 mm 3 m/s 725 mmHg 63%
    15:00 +26°C° 0,3 mm 3 m/s 724 mmHg 63%
    16:00 +26°C° 0,3 mm 2 m/s 724 mmHg 63%
    17:00 +25°C° 0,1 mm 2 m/s 724 mmHg 68%
    18:00 +24°C° 0,1 mm 2 m/s 724 mmHg 74%
    19:00 +23°C° 0,1 mm 2 m/s 724 mmHg 80%
    20:00 +21°C° 0,2 mm 2 m/s 724 mmHg 82%
    21:00 +20°C° 0,2 mm 2 m/s 724 mmHg 84%
    22:00 +19°C° 0,2 mm 2 m/s 724 mmHg 86%
    23:00 +19°C° 0 mm 2 m/s 724 mmHg 87%

    Poimâine, 29 Mai, Marţi

    Timp Temperatura Precipitaţii Vânt Presiune Umiditate
    00:00 +19°C° 0 mm 1 m/s 724 mmHg 88%
    01:00 +19°C° 0 mm 1 m/s 724 mmHg 89%
    02:00 +19°C° 0 mm 1 m/s 724 mmHg 90%
    03:00 +18°C° 0 mm 1 m/s 724 mmHg 91%
    04:00 +18°C° 0 mm 1 m/s 723 mmHg 92%
    05:00 +18°C° 0 mm 2 m/s 724 mmHg 89%
    06:00 +19°C° 0 mm 2 m/s 724 mmHg 85%
    07:00 +21°C° 0 mm 2 m/s 724 mmHg 82%
    08:00 +22°C° 0,6 mm 3 m/s 724 mmHg 77%
    09:00 +23°C° 0,6 mm 4 m/s 724 mmHg 73%
    10:00 +25°C° 0,6 mm 4 m/s 724 mmHg 68%
    11:00 +25°C° 0,7 mm 4 m/s 724 mmHg 67%
    12:00 +25°C° 0,7 mm 4 m/s 723 mmHg 66%
    13:00 +26°C° 0,7 mm 4 m/s 723 mmHg 66%
    14:00 +26°C° 0,2 mm 4 m/s 723 mmHg 65%
    15:00 +26°C° 0,2 mm 4 m/s 722 mmHg 65%
    16:00 +26°C° 0,2 mm 4 m/s 722 mmHg 64%
    17:00 +25°C° 0,1 mm 3 m/s 722 mmHg 69%
    18:00 +22°C° 0,1 mm 3 m/s 721 mmHg 74%
    19:00 +21°C° 0,1 mm 2 m/s 721 mmHg 80%
    20:00 +20°C° 0,2 mm 2 m/s 721 mmHg 81%
    21:00 +19°C° 0,2 mm 2 m/s 721 mmHg 83%
    22:00 +19°C° 0,2 mm 2 m/s 722 mmHg 84%
    23:00 +18°C° 0 mm 2 m/s 721 mmHg 84%

    30 Mai, Miercuri

    Timp Temperatura Precipitaţii Vânt Presiune Umiditate
    00:00 +18°C° 0 mm 2 m/s 721 mmHg 84%
    01:00 +18°C° 0 mm 2 m/s 721 mmHg 84%
    02:00 +17°C° 0,1 mm 2 m/s 721 mmHg 86%
    03:00 +16°C° 0,1 mm 2 m/s 721 mmHg 88%
    04:00 +16°C° 0,1 mm 2 m/s 720 mmHg 89%
    05:00 +17°C° 0 mm 2 m/s 721 mmHg 86%
    06:00 +18°C° 0 mm 2 m/s 721 mmHg 83%
    07:00 +19°C° 0 mm 2 m/s 721 mmHg 80%
    08:00 +20°C° 0 mm 2 m/s 721 mmHg 75%
    09:00 +22°C° 0 mm 3 m/s 721 mmHg 69%
    10:00 +24°C° 0 mm 3 m/s 721 mmHg 64%
    11:00 +25°C° 0,2 mm 3 m/s 721 mmHg 63%
    12:00 +26°C° 0,2 mm 4 m/s 721 mmHg 61%
    13:00 +27°C° 0,2 mm 4 m/s 720 mmHg 60%
    14:00 +26°C° 1,1 mm 3 m/s 720 mmHg 64%
    15:00 +26°C° 1,1 mm 3 m/s 720 mmHg 68%
    16:00 +25°C° 1,1 mm 3 m/s 719 mmHg 72%
    17:00 +24°C° 0,7 mm 2 m/s 719 mmHg 77%
    18:00 +23°C° 0,7 mm 2 m/s 719 mmHg 81%
    19:00 +21°C° 0,7 mm 2 m/s 719 mmHg 85%
    20:00 +20°C° 0,2 mm 2 m/s 719 mmHg 87%
    21:00 +19°C° 0,2 mm 2 m/s 719 mmHg 89%
    22:00 +19°C° 0,2 mm 2 m/s 719 mmHg 91%
    23:00 +18°C° 0,4 mm 2 m/s 719 mmHg 92%

    31 Mai, Joi

    Timp Temperatura Precipitaţii Vânt Presiune Umiditate
    00:00 +19°C° 0,4 mm 1 m/s 718 mmHg 92%
    01:00 +18°C° 0,4 mm 1 m/s 718 mmHg 93%
    02:00 +18°C° 0 mm 1 m/s 718 mmHg 93%
    03:00 +18°C° 0 mm 1 m/s 718 mmHg 93%
    04:00 +16°C° 0 mm 1 m/s 718 mmHg 93%
    05:00 +19°C° 0 mm 1 m/s 718 mmHg 90%
    06:00 +20°C° 0 mm 1 m/s 718 mmHg 86%
    07:00 +21°C° 0 mm 1 m/s 718 mmHg 83%
    08:00 +22°C° 0,6 mm 1 m/s 718 mmHg 78%
    09:00 +24°C° 0,6 mm 1 m/s 719 mmHg 74%
    10:00 +25°C° 0,6 mm 1 m/s 719 mmHg 69%
    11:00 +26°C° 0,7 mm 1 m/s 718 mmHg 67%
    12:00 +26°C° 0,7 mm 1 m/s 718 mmHg 66%
    13:00 +27°C° 0,7 mm 1 m/s 718 mmHg 64%
    14:00 +26°C° 0,8 mm 1 m/s 718 mmHg 65%
    15:00 +26°C° 0,8 mm 1 m/s 718 mmHg 67%
    16:00 +26°C° 0,8 mm 1 m/s 717 mmHg 68%
    17:00 +25°C° 0,8 mm 1 m/s 717 mmHg 73%
    18:00 +24°C° 0,8 mm 1 m/s 717 mmHg 78%
    19:00 +21°C° 0,8 mm 2 m/s 717 mmHg 83%
    20:00 +20°C° 0,7 mm 2 m/s 717 mmHg 85%
    21:00 +20°C° 0,7 mm 2 m/s 718 mmHg 86%
    22:00 +19°C° 0,7 mm 2 m/s 718 mmHg 88%
    23:00 +18°C° 0,3 mm 2 m/s 718 mmHg 89%

    1 Iunie, Vineri

    Timp Temperatura Precipitaţii Vânt Presiune Umiditate
    00:00 +18°C° 0,3 mm 3 m/s 718 mmHg 89%
    01:00 +17°C° 0,3 mm 3 m/s 718 mmHg 90%
    02:00 +17°C° 0,2 mm 3 m/s 718 mmHg 90%
    03:00 +17°C° 0,2 mm 3 m/s 718 mmHg 91%
    04:00 +16°C° 0,2 mm 3 m/s 718 mmHg 91%
    05:00 +17°C° 0 mm 4 m/s 719 mmHg 89%
    06:00 +17°C° 0 mm 4 m/s 719 mmHg 87%
    07:00 +17°C° 0 mm 5 m/s 720 mmHg 85%
    08:00 +17°C° 0,1 mm 5 m/s 720 mmHg 82%
    09:00 +19°C° 0,1 mm 5 m/s 720 mmHg 79%
    10:00 +19°C° 0,1 mm 5 m/s 721 mmHg 76%
    11:00 +20°C° 0 mm 5 m/s 721 mmHg 71%
    12:00 +21°C° 0 mm 5 m/s 721 mmHg 65%
    13:00 +22°C° 0 mm 5 m/s 721 mmHg 59%
    14:00 +22°C° 0 mm 5 m/s 721 mmHg 59%
    15:00 +22°C° 0 mm 5 m/s 721 mmHg 59%
    16:00 +22°C° 0 mm 5 m/s 721 mmHg 58%
    17:00 +20°C° 0 mm 5 m/s 721 mmHg 63%
    18:00 +19°C° 0 mm 4 m/s 721 mmHg 68%
    19:00 +18°C° 0 mm 3 m/s 722 mmHg 73%
    20:00 +17°C° 0 mm 3 m/s 722 mmHg 73%
    21:00 +16°C° 0 mm 3 m/s 722 mmHg 73%
    22:00 +14°C° 0 mm 3 m/s 723 mmHg 74%
    23:00 +13°C° 0 mm 3 m/s 723 mmHg 75%
    Arată mai mult